Regional Weather Roundup
Issued by NWS

Home | Current Version | Previous Version | Text Only | Print | Product List | Glossary On
Versions: 1 2 3 4 5 6 7 8 9 10 11 12 13 14 15 16 17 18 19 20 21 22 23 24 25 26 27 28 29 30 31 32 33 34 35 36 37 38 39 40 41 42 43 44 45 46 47 48 49 50
000
ASUS42 KFFC 031203
RWRGA
WEATHER ROUNDUP FOR GEORGIA
NATIONAL WEATHER SERVICE PEACHTREE CITY GA
800 AM EDT TUE AUG 03 2021

NOTE: "FAIR" INDICATES FEW OR NO CLOUDS BELOW 12,000 FEET WITH NO
SIGNIFICANT WEATHER AND/OR OBSTRUCTIONS TO VISIBILITY.

* = USE WITH CAUTION. THE STATIONS MARKED WITH AN ASTERISK MAY NOT
REPORT WEATHER SUCH AS PRECIPITATION, FOG, OR THUNDER AND ARE NOT
QUALITY CONTROLLED BY NWS.

THE REMARK "TC" DENOTES TEMPERATURE READING IN DEGREES CELSIUS.

GAZ001>058-031300-
NORTH GEORGIA

CITY           SKY/WX    TMP DP  RH WIND       PRES   REMARKS
ATLANTA        PTSUNNY   73  68  84 NE9       29.99S
6HR MIN TEMP:  72; 6HR MAX TEMP:  75; 6HR PCP: TRACE;

ATHENS         LGT RAIN  71  67  87 E3        30.00R
6HR MIN TEMP:  69; 6HR MAX TEMP:  74; 6HR PCP:  0.33;

CHAMBLEE       CLOUDY    70  67  90 NE5       30.00S
6HR MIN TEMP:  69; 6HR MAX TEMP:  72; 6HR PCP: TRACE;

PEACHTREE CITY CLOUDY    73  70  90 CALM      29.98S FOG
6HR MIN TEMP:  73; 6HR MAX TEMP:  75; 6HR PCP:  0.01;

ROME           MOSUNNY   72  67  84 NE3       29.98R HAZE
6HR MIN TEMP:  71; 6HR MAX TEMP:  74;

WEST ATLANTA   CLOUDY    72  70  93 NE3       29.99S
6HR MIN TEMP:  72; 6HR MAX TEMP:  73; 6HR PCP:  0.01;

GAINESVILLE    LGT RAIN  70  65  84 MISG      30.04R
6HR MIN TEMP:  70; 6HR MAX TEMP:  72; 6HR PCP: TRACE;

CARTERSVILLE   PTSUNNY   72  70  94 CALM      29.99S FOG


CITY           SKY/WX    TMP DP  RH WIND       PRES   REMARKS
DALTON*        PTSUNNY   72  68  88 N3        30.01S FOG
LAWRENCEVILLE* CLOUDY   N/A N/A N/A CALM      30.01S
MARIETTA       PTSUNNY   71  66  85 E6        30.00R
KENNESAW*      CLOUDY    72  69  90 E5        30.01S
CANTON*        CLOUDY   N/A N/A N/A CALM      30.02F
BLAIRSVILLE*   CLOUDY    67  65  95 CALM      30.06S FOG
$$

GAZ059>098-102>109-031300-
CENTRAL GEORGIA

CITY           SKY/WX    TMP DP  RH WIND       PRES   REMARKS
AUGUSTA-BUSH   CLOUDY    76  73  91 CALM      29.94F
6HR MIN TEMP:  75; 6HR MAX TEMP:  76; 6HR PCP:  0.06;

AUGUSTA-DANIEL CLOUDY    76  73  91 NW3       29.97S FOG
6HR MIN TEMP:  75; 6HR MAX TEMP:  77; 6HR PCP:  0.04;

COLUMBUS       CLOUDY    73  70  90 CALM      29.96R
6HR MIN TEMP:  72; 6HR MAX TEMP:  74;

MACON            N/A    N/A N/A N/A MISG      29.96S
ROBINS AFB     CLOUDY    72  72 100 CALM      29.95S


CITY           SKY/WX    TMP DP  RH WIND       PRES   REMARKS
LAGRANGE*      PTSUNNY   72  69  92 CALM      29.98S FOG
SYLVANIA*      DRIZZLE   74  73  96 CALM      29.97S
$$

GAZ099>101-110>166-031300-
SOUTH GEORGIA

CITY           SKY/WX    TMP DP  RH WIND       PRES   REMARKS
SAVANNAH       PTSUNNY   75  73  93 CALM      29.95S
6HR MIN TEMP:  73; 6HR MAX TEMP:  75; 6HR PCP: TRACE;

VALDOSTA       CLOUDY    76  74  93 CALM      29.95R
6HR MIN TEMP:  74; 6HR MAX TEMP:  76; 6HR PCP:  0.01;

ALMA           CLOUDY    73  73 100 SW5       29.94S FOG
6HR MIN TEMP:  72; 6HR MAX TEMP:  73;

ST SIMONS      CLOUDY    77  75  93 W7        29.93F
6HR MIN TEMP:  75; 6HR MAX TEMP:  77; 6HR PCP:  0.01;

FT STEWART     PTSUNNY   73  73  99 CALM      29.93R FOG
ALBANY         CLOUDY    77  73  87 NW3       29.96S
HUNTER AFB     PTSUNNY   75  73  93 CALM      29.92S
MOODY AFB      LGT RAIN  74  72  95 W5        29.94R
BRUNSWICK      CLOUDY    75  74  96 W3        29.94S


CITY           SKY/WX    TMP DP  RH WIND       PRES   REMARKS
BAINBRIDGE*    CLOUDY    74  74  99 N5        29.95S
MOULTRIE*      CLOUDY    73  72  94 CALM      29.96S FOG
VIDALIA*       CLOUDY    73  72  94 CALM      29.96S
WAYCROSS*      CLOUDY    74  73  96 SW3         N/A
DOUGLAS*       RAIN      73  72  96 CALM      29.97R
$$



USA.gov is the U.S. government's official web portal to all federal, state and local government web resources and services.